sat.trackr.live / text

‹ back to catalog

STARLINK-30985

NORAD 58493 · 2023-186W

PAYLOAD ACTIVE UNKNOWN

§ Identity

Operator
Country
US
Launch date
2023-12-03
Launch site
AFETR
Launch vehicle
Mass (kg)
RCS (m²)

Purposes: comms

External: N2YO · Heavens-Above · Gunter

§ Orbital elements

Epoch: 2026-05-24T23:04:32.949408Z

Period
94.26 min
Inclination
43.0044°
Eccentricity
0.0001599
Mean motion
15.27610221 rev/d
Perigee alt
481.9 km
Apogee alt
484.1 km
Semi-major
6,861.1 km
B*
-2.2111e-4
RAAN
352.6750°
Arg perigee
239.7999°
Mean anomaly
120.2694°
Rev number
13,755

§ Raw data

STARLINK-309851 58493U 23186W   26144.96149247 -.00006347  00000+0 -22111-3 0  99992 58493  43.0044 352.6750 0001599 239.7999 120.2694 15.27610221137558

JSON: /api/v1/satellites/58493 · /tle

For live sub-satellite position, see the globe view (requires WebGL).

§ Visibility from observer

Set your observer location to see the next 7 days of passes ≥ 10°. The values pass through the URL so the page stays shareable.

No JS? Fill the form by hand. The geolocation button needs JavaScript.